Terug naar catalogus

COSMOS 1535

ActiefMilitairPO
NORAD 14679·PAYLOAD·🇷🇺 Russia

Gelanceerd Feb 2, 1984 vanaf Plesetsk Cosmodrome

Loading…

Volgende Passages (komende 24 uur)

TLE

VersSource: Space-Track

Epoch: Sep 14, 2026, 12:33 UTC

1 14679U 84010A   26257.52358793  .00000090  00000-0  77294-4 0  9996
2 14679  82.9536  88.7042 0043364  85.6184 303.5744 13.75457190107133

Volg COSMOS 1535 in realtime met AllMySat

Download on the App Store